Location: Jackson
(42.2460°N, 84.4010°W)
Time: 19:32:17
(UTC-04:00)

Courier 1B Rocket - Pass Details

Date: 09 February 2026
Orbit: 920 x 1201 km, 28.2° (Epoch: 12 March)

Event Time Altitude Azimuth Distance (km) Brightness Sun altitude
Rises 00:30:07 0° 238° (WSW) 3,821 - -62.0°
Reaches altitude 10° 00:33:15 10° 226° (SW) 2,915 - -62.1°
Maximum altitude 00:38:59 26° 173° (S) 2,053 - -62.3°
Drops below altitude 10° 00:44:59 10° 120° (ESE) 3,067 - -62.4°
Sets 00:48:22 0° 109° (ESE) 4,059 - -62.4°
